SHIYAN 11 (SY-11) (49501 NORAD) Tracking and Keplerian Element Data

This shows tracking and keplerian element data for the satellite.

Feedback or suggestion? Click here.




ElementValue
Catalog49501
NameSHIYAN 11 (SY-11)
Epoch Orbit794
Epoch Day16.12824493
Epoch Year2022
RAAN26.2049
Inclination97.4532
Eccentricity0.0013402
Argument of Perigee82.7446
Mean Anonmoly345.787
Mean Motion15.23557114
Decay Rate1.771E-05
L11 49501U 21112A 22016.12824493 .00001771 00000+0 76933-4 0 9997
L22 49501 97.4532 26.2049 0013402 82.7446 345.7870 15.23557114 7943

Live tracking and technical data element details for SHIYAN 11 (SY-11) (NORAD 49501). SHIYAN 11 (SY-11) can be tracked NOW for your location showing map with azimuth and elevation plus other details from your city location.

Track the satellite on the map from your city or location and see movement details for azimuth, elevation, latitude, longitude, range, height, and movement on the map or in text.







IsCatalogInMostPopularTable: catalog: 49501, numindb: 4
Update: records affected: 1



GetName: 49501 SHIYAN 11 (SY-11)

Hit Count: updated at: Thu, 20 Jan 2022 17:39:05 GMT